Location: The Saddle
(36.8333°N, 80.3417°W)
Time: 03:55:54
(UTC-05:00)

AO-7 - Visible Passes

Search period start: 11 December 2023 00:00
Search period end: 21 December 2023 00:00
Orbit: 1439 x 1459 km, 102.0° (Epoch: 10 December)

Date Brightness Start Highest point End Pass type
(mag) Time Alt. Az. Time Alt. Az. Time Alt. Az.
11 Dec ? 03:38:29 10° ENE 03:40:01 11° E 03:41:33 10° E visible
11 Dec ? 05:25:37 10° NNE 05:33:56 72° ESE 05:42:12 10° S visible
11 Dec ? 18:17:56 10° SW 18:23:22 19° W 18:28:50 10° NW visible
12 Dec ? 04:26:41 10° NE 04:33:39 29° E 04:40:34 10° SSE visible
12 Dec ? 06:18:36 10° N 06:26:38 57° WNW 06:34:41 10° SW visible
13 Dec ? 05:18:35 10° NNE 05:26:50 65° ESE 05:35:03 10° S visible
13 Dec ? 18:10:15 10° SW 18:16:11 21° W 18:22:11 10° NW visible
14 Dec ? 04:19:51 10° NE 04:26:30 26° E 04:33:05 10° SSE visible
14 Dec ? 06:11:27 10° N 06:19:37 63° WNW 06:27:45 10° SW visible
15 Dec ? 05:11:34 10° NNE 05:19:44 58° ESE 05:27:52 10° S visible
15 Dec ? 18:02:39 10° SSW 18:09:01 24° W 18:15:26 10° NW visible
16 Dec ? 04:13:05 10° NE 04:19:20 23° E 04:25:31 10° SE visible
16 Dec ? 06:04:19 10° NNE 06:12:34 70° WNW 06:20:48 10° SSW visible
17 Dec ? 05:04:33 10° NNE 05:12:38 52° ESE 05:20:40 10° S visible
17 Dec ? 06:57:48 10° N 07:04:57 34° WNW 07:12:07 10° WSW visible
17 Dec ? 17:55:07 10° SSW 18:01:52 27° W 18:08:39 10° NW visible
18 Dec ? 04:06:23 10° NE 04:12:09 20° E 04:17:53 10° SE visible
18 Dec ? 05:57:13 10° NNE 06:05:30 77° WNW 06:13:48 10° SSW visible
19 Dec ? 04:57:34 10° NNE 05:05:31 47° ESE 05:13:24 10° S visible
19 Dec ? 06:50:36 10° N 06:57:58 37° WNW 07:05:22 10° SW visible
19 Dec ? 17:47:39 10° SSW 17:54:42 31° W 18:01:48 10° NW visible
20 Dec ? 03:59:45 10° NE 04:04:58 18° E 04:10:09 10° SE visible
20 Dec ? 05:50:07 10° NNE 05:58:27 84° WNW 06:06:47 10° SSW visible
20 Dec ? 18:45:49 10° WSW 18:48:18 11° W 18:50:47 10° WNW visible
